Location: Palomar Mountain Lodge
(33.3110°N, 116.8495°W)
Time: 08:38:33
(UTC-08:00)

Cosmos 2218 Rocket - Pass Details

Date: 19 May 2017
Orbit: 956 x 1006 km, 82.9° (Epoch: 22 November)

Event Time Altitude Azimuth Distance (km) Brightness Sun altitude
Rises 23:21:01 0° 354° (N) 3,637 8.0 -33.1°
Reaches altitude 10° 23:23:31 10° 354° (N) 2,689 7.1 -33.3°
Enters shadow 23:28:23 59° 357° (N) 1,100 4.4 -33.7°
